User: anonymous
Location: Cimarron National Grasslands
(37.1250°N, 101.7500°W)
Time: 07:44:22
(UTC-05:00)
Language:

Ariane Rocket - Orbit

View from above orbital plane
View from above orbital plane
View from above satellite
View from above satellite

Ground track
Ground track

The orbit data is extracted from the following two-line orbital elements,

1 23561U 95021B   14209.02045542  .00000165  00000-0  70585-4 0  8228
2 23561 098.6854 175.5976 0007979 137.8921 272.6501 14.37288083  9648
Epoch (UTC): 28 July 2014 00:29:27
Eccentricity: 0.0007979
inclination: 98.6854°
perigee height: 762 km
apogee height: 773 km
right ascension of ascending node: 175.5976°
argument of perigee: 137.8921°
revolutions per day: 14.37288083
mean anomaly at epoch: 272.6501°
orbit number at epoch: 964

The dashed part of the orbit path shows where the satellite is in the earth's shadow,  

DLR